TimeAKDT,TemperatureF,Dew PointF,Humidity,Sea Level PressureIn,VisibilityMPH,Wind Direction,Wind SpeedMPH,Gust SpeedMPH,PrecipitationIn,Events,Conditions,WindDirDegrees,DateUTC
12:56 AM,39.9,34.0,79,29.62,10.0,SSW,3.5,-,N/A,,Overcast,200,2013-09-26 08:56:00
1:56 AM,39.9,34.0,79,29.63,10.0,Calm,Calm,-,N/A,,Overcast,0,2013-09-26 09:56:00
2:56 AM,39.9,34.0,79,29.64,10.0,NW,5.8,-,N/A,,Overcast,310,2013-09-26 10:56:00
3:56 AM,37.9,34.0,86,29.65,10.0,Calm,Calm,-,N/A,,Mostly Cloudy,0,2013-09-26 11:56:00
4:56 AM,35.1,32.0,89,29.65,10.0,Calm,Calm,-,N/A,,Clear,0,2013-09-26 12:56:00
5:56 AM,35.1,32.0,89,29.66,10.0,Calm,Calm,-,N/A,,Overcast,0,2013-09-26 13:56:00
6:21 AM,35.6,32.0,87,29.64,10.0,Calm,Calm,-,N/A,,Overcast,0,2013-09-26 14:21:00
6:55 AM,35.6,32.0,87,29.66,10.0,Calm,Calm,-,N/A,,Overcast,0,2013-09-26 14:55:00
7:55 AM,37.4,33.8,87,29.66,10.0,Calm,Calm,-,N/A,,Overcast,0,2013-09-26 15:55:00
8:55 AM,35.6,33.8,93,29.66,10.0,ENE,2.3,-,N/A,,Overcast,70,2013-09-26 16:55:00
9:55 AM,37.4,33.8,87,29.66,10.0,Calm,Calm,-,N/A,,Overcast,0,2013-09-26 17:55:00
10:55 AM,39.2,35.6,87,29.66,10.0,Calm,Calm,-,N/A,,Overcast,0,2013-09-26 18:55:00
11:55 AM,42.8,35.6,76,29.65,10.0,Calm,Calm,-,N/A,,Overcast,0,2013-09-26 19:55:00
12:55 PM,42.8,35.6,76,29.64,10.0,Calm,Calm,-,N/A,,Mostly Cloudy,0,2013-09-26 20:55:00
12:56 PM,42.8,35.6,76,29.64,10.0,Calm,Calm,-,N/A,,Mostly Cloudy,0,2013-09-26 20:56:00
1:45 PM,44.6,35.6,71,29.64,10.0,Calm,Calm,-,N/A,Rain,Light Rain,0,2013-09-26 21:45:00
2:10 PM,44.6,35.6,71,29.59,10.0,Calm,Calm,-,N/A,,Mostly Cloudy,0,2013-09-26 22:10:00
2:55 PM,46.4,35.6,66,29.60,10.0,Calm,Calm,-,N/A,,Overcast,0,2013-09-26 22:55:00
3:55 PM,46.4,35.6,66,29.57,10.0,Calm,Calm,-,N/A,,Overcast,0,2013-09-26 23:55:00
4:55 PM,46.4,35.6,66,29.55,10.0,Calm,Calm,-,N/A,Rain,Light Rain,0,2013-09-27 00:55:00
5:55 PM,48.2,37.4,66,29.52,10.0,Variable,3.5,-,N/A,,Mostly Cloudy,0,2013-09-27 01:55:00
6:55 PM,46.4,37.4,71,29.49,10.0,North,3.5,-,N/A,,Mostly Cloudy,360,2013-09-27 02:55:00
7:55 PM,44.6,37.4,76,29.47,10.0,Calm,Calm,-,N/A,,Mostly Cloudy,0,2013-09-27 03:55:00
8:55 PM,42.8,37.4,81,29.44,10.0,Calm,Calm,-,N/A,,Mostly Cloudy,0,2013-09-27 04:55:00
9:55 PM,44.6,35.6,71,29.40,10.0,ENE,5.8,-,N/A,,Mostly Cloudy,70,2013-09-27 05:55:00
10:56 PM,43.0,36.0,76,29.37,10.0,ENE,6.9,-,N/A,,Overcast,70,2013-09-27 06:56:00
11:56 PM,42.1,35.1,76,29.34,10.0,ENE,9.2,-,N/A,,Clear,60,2013-09-27 07:56:00